Location: *
(51.2167°N, 10.0667°E)
Time: 13:27:55
(UTC+00:00)

USA 215 - Pass Details

Date: 12 December 2019
Orbit: 1099 x 1109 km, 123.0° (Epoch: 03 January)

Event Time Altitude Azimuth Distance (km) Brightness Sun altitude
Exits shadow 15:48:56 - 61° (ENE) 3,282 5.0 -5.6°
Reaches altitude 10° 15:49:48 10° 63° (ENE) 2,966 4.8 -5.7°
Maximum altitude 15:56:08 50° 138° (SE) 1,379 3.7 -6.6°
Drops below altitude 10° 16:02:27 10° 213° (SSW) 2,960 6.6 -7.5°
Sets 16:05:02 0° 218° (SW) 3,916 7.5 -7.8°
